sat.trackr.live / text

‹ back to catalog

STARLINK-31330

NORAD 58951 · 2024-027W

PAYLOAD ACTIVE UNKNOWN

§ Identity

Operator
Country
US
Launch date
2024-02-10
Launch site
AFWTR
Launch vehicle
Mass (kg)
RCS (m²)

Purposes: comms

External: N2YO · Heavens-Above · Gunter

§ Orbital elements

Epoch: 2026-05-24T21:06:38.093184Z

Period
93.85 min
Inclination
53.1624°
Eccentricity
0.0001038
Mean motion
15.34390262 rev/d
Perigee alt
462.0 km
Apogee alt
463.4 km
Semi-major
6,840.9 km
B*
1.3040e-5
RAAN
312.1748°
Arg perigee
67.2966°
Mean anomaly
292.8146°
Rev number
12,904

§ Raw data

STARLINK-313301 58951U 24027W   26144.87960756  .00000064  00000+0  13040-4 0  99992 58951  53.1624 312.1748 0001038  67.2966 292.8146 15.34390262129048

JSON: /api/v1/satellites/58951 · /tle

For live sub-satellite position, see the globe view (requires WebGL).

§ Visibility from observer

Set your observer location to see the next 7 days of passes ≥ 10°. The values pass through the URL so the page stays shareable.

No JS? Fill the form by hand. The geolocation button needs JavaScript.